Clinton, OK

3:36 AM CST on January 18, 2017 (GMT -0600)
Clinton Municipal

Weather History for KCLK - October, 2011

Change the Weather History Date:

Tuesday, October 11, 2011

  Actual Average (KCSM) Record (KCSM)
Temperature  
Mean Temperature 62 °F -  
Max Temperature 73 °F 72 °F 93 °F (2015)
Min Temperature 51 °F 50 °F 46 °F (2006)
Degree Days  
Heating Degree Days 3    
Growing Degree Days 12 (Base 50)    
Moisture  
Dew Point 54 °F    
Average Humidity 77    
Maximum Humidity 94    
Minimum Humidity 53    
Precipitation  
Precipitation 0.00 in - - ()
Sea Level Pressure  
Sea Level Pressure 29.88 in    
Wind  
Wind Speed 7 mph (SSE)    
Max Wind Speed 16 mph    
Max Gust Speed 22 mph    
Visibility 9 miles    
Events Rain    
Averages and records for this station are not official NWS values.
T = Trace of Precipitation, MM = Missing Value Source: NWS Daily Summary

Daily Weather History Graph

Daily Weather History Graph

Search for Another Location

Airport or City:

Trip Planner

Search our weather history database for the weather conditions in past years. The results will help you decide how hot, cold, wet, or windy it might be!

Date:

Astronomy

Oct. 11, 2011 Rise Set
Actual Time 7:38 AM CDT 7:05 PM CDT
Civil Twilight 7:12 AM CDT 7:31 PM CDT
Nautical Twilight 6:43 AM CDT 8:00 PM CDT
Astronomical Twilight 6:13 AM CDT 8:30 PM CDT
Moon 6:40 PM CDT (10/11) 7:16 AM CDT (10/11)
Length of Visible Light 12h 18m
Length of Day
11h 27m
Full, 100% of the Moon is Illuminated
Oct 11
Full
Oct 11
Full
Oct 19
Last Quarter
Oct 26
New
Nov 2
First Quarter

Hourly Weather History & Observations

Time (CDT) Temp. Dew Point Humidity Pressure Visibility Wind Dir Wind Speed Gust Speed Precip Events Conditions
12:15 AM 55.4 °F 51.8 °F 88% 29.98 in 10.0 mi SSE 4.6 mph - N/A   Clear
12:35 AM 55.4 °F 51.8 °F 88% 29.98 in 10.0 mi SSE 4.6 mph - N/A   Clear
12:55 AM 55.4 °F 51.8 °F 88% 29.97 in 10.0 mi SSE 6.9 mph - N/A   Clear
1:15 AM 55.4 °F 51.8 °F 88% 29.97 in 10.0 mi SSE 6.9 mph - N/A   Clear
1:35 AM 55.4 °F 51.8 °F 88% 29.96 in 10.0 mi SSE 5.8 mph - N/A   Clear
1:55 AM 55.4 °F 51.8 °F 88% 29.96 in 10.0 mi South 4.6 mph - N/A   Clear
2:15 AM 55.4 °F 51.8 °F 88% 29.96 in 10.0 mi South 4.6 mph - N/A   Clear
2:55 AM 53.6 °F 51.8 °F 94% 29.96 in 7.0 mi Calm Calm - N/A   Clear
3:15 AM 53.6 °F 50.0 °F 88% 29.96 in 5.0 mi Calm Calm - N/A   Clear
3:35 AM 51.8 °F 50.0 °F 94% 29.95 in 5.0 mi SSE 4.6 mph - N/A   Clear
3:55 AM 53.6 °F 51.8 °F 94% 29.95 in 7.0 mi SSE 4.6 mph - N/A   Clear
4:15 AM 53.6 °F 50.0 °F 88% 29.95 in 7.0 mi Calm Calm - N/A   Clear
4:35 AM 53.6 °F 50.0 °F 88% 29.94 in 7.0 mi SSE 3.5 mph - N/A   Clear
4:55 AM 53.6 °F 50.0 °F 88% 29.95 in 7.0 mi SE 3.5 mph - N/A   Clear
5:15 AM 53.6 °F 50.0 °F 88% 29.95 in 7.0 mi SE 4.6 mph - N/A   Clear
5:35 AM 51.8 °F 50.0 °F 94% 29.95 in 7.0 mi SE 4.6 mph - N/A   Clear
5:55 AM 51.8 °F 50.0 °F 94% 29.94 in 7.0 mi SSE 5.8 mph - N/A   Clear
6:15 AM 53.6 °F 51.8 °F 94% 29.94 in 7.0 mi SSE 6.9 mph - N/A   Clear
6:35 AM 53.6 °F 51.8 °F 94% 29.95 in 7.0 mi SSE 6.9 mph - N/A   Clear
6:55 AM 53.6 °F 50.0 °F 88% 29.94 in 7.0 mi South 4.6 mph - N/A   Clear
7:35 AM 51.8 °F 50.0 °F 94% 29.94 in 5.0 mi SSE 4.6 mph - N/A   Clear
7:55 AM 51.8 °F 50.0 °F 94% 29.94 in 4.0 mi SSE 4.6 mph - N/A   Clear
8:15 AM 51.8 °F 50.0 °F 94% 29.94 in 4.0 mi South 3.5 mph - N/A   Clear
8:35 AM 53.6 °F 51.8 °F 94% 29.94 in 5.0 mi SSE 5.8 mph - N/A   Clear
8:55 AM 53.6 °F 51.8 °F 94% 29.95 in 7.0 mi South 6.9 mph - N/A   Clear
9:15 AM 55.4 °F 53.6 °F 94% 29.95 in 10.0 mi South 6.9 mph - N/A   Clear
9:35 AM 59.0 °F 53.6 °F 82% 29.95 in 10.0 mi South 9.2 mph - N/A   Clear
9:55 AM 59.0 °F 53.6 °F 82% 29.94 in 10.0 mi South 10.4 mph - N/A   Clear
10:55 AM 64.4 °F 55.4 °F 73% 29.93 in 10.0 mi South 13.8 mph 19.6 mph N/A   Clear
11:15 AM 64.4 °F 55.4 °F 73% 29.92 in 10.0 mi SSW 11.5 mph - N/A   Clear
11:35 AM 68.0 °F 55.4 °F 64% 29.92 in 10.0 mi South 16.1 mph - N/A   Clear
11:55 AM 68.0 °F 55.4 °F 64% 29.91 in 10.0 mi South 10.4 mph 20.7 mph N/A   Clear
12:15 PM 69.8 °F 55.4 °F 60% 29.91 in 10.0 mi South 13.8 mph 20.7 mph N/A   Clear
12:55 PM 69.8 °F 57.2 °F 64% 29.88 in 10.0 mi South 13.8 mph 20.7 mph N/A   Clear
1:15 PM 71.6 °F 57.2 °F 60% 29.87 in 10.0 mi South 16.1 mph - N/A   Clear
1:35 PM 69.8 °F 57.2 °F 64% 29.86 in 10.0 mi South 13.8 mph 21.9 mph N/A   Clear
1:55 PM 71.6 °F 59.0 °F 64% 29.84 in 10.0 mi South 15.0 mph - N/A   Clear
2:15 PM 71.6 °F 57.2 °F 60% 29.84 in 10.0 mi South 15.0 mph - N/A   Clear
2:35 PM 71.6 °F 59.0 °F 64% 29.84 in 10.0 mi South 10.4 mph - N/A   Clear
2:55 PM 71.6 °F 57.2 °F 60% 29.83 in 10.0 mi South 16.1 mph 19.6 mph N/A   Clear
3:15 PM 71.6 °F 57.2 °F 60% 29.81 in 10.0 mi South 15.0 mph - N/A   Clear
3:35 PM 71.6 °F 57.2 °F 60% 29.81 in 10.0 mi SSE 12.7 mph - N/A   Clear
3:55 PM 73.4 °F 55.4 °F 53% 29.80 in 10.0 mi South 16.1 mph - N/A   Clear
4:15 PM 71.6 °F 57.2 °F 60% 29.80 in 10.0 mi South 13.8 mph - N/A   Clear
4:35 PM 71.6 °F 57.2 °F 60% 29.79 in 10.0 mi South 13.8 mph - N/A   Clear
4:55 PM 71.6 °F 57.2 °F 60% 29.78 in 10.0 mi South 11.5 mph - N/A   Clear
5:15 PM 71.6 °F 57.2 °F 60% 29.78 in 10.0 mi South 13.8 mph 18.4 mph N/A   Clear
5:35 PM 71.6 °F 57.2 °F 60% 29.78 in 10.0 mi South 10.4 mph - N/A   Clear
5:55 PM 71.6 °F 57.2 °F 60% 29.78 in 10.0 mi South 11.5 mph - N/A   Clear
6:15 PM 71.6 °F 57.2 °F 60% 29.78 in 10.0 mi South 11.5 mph - N/A   Clear
6:35 PM 69.8 °F 57.2 °F 64% 29.77 in 10.0 mi SSE 10.4 mph - N/A   Clear
6:55 PM 69.8 °F 57.2 °F 64% 29.77 in 10.0 mi SSE 10.4 mph - N/A   Clear
7:15 PM 68.0 °F 57.2 °F 68% 29.76 in 10.0 mi SSE 10.4 mph - N/A   Clear
7:35 PM 68.0 °F 57.2 °F 68% 29.76 in 10.0 mi SSE 10.4 mph - N/A   Clear
7:55 PM 66.2 °F 57.2 °F 73% 29.77 in 10.0 mi SE 6.9 mph - N/A   Clear
8:15 PM 66.2 °F 57.2 °F 73% 29.79 in 10.0 mi SSE 6.9 mph - N/A   Clear
8:35 PM 66.2 °F 57.2 °F 73% 29.80 in 10.0 mi SSE 5.8 mph - N/A   Clear
8:55 PM 64.4 °F 57.2 °F 77% 29.80 in 10.0 mi SSE 3.5 mph - N/A   Clear
9:15 PM 64.4 °F 57.2 °F 77% 29.81 in 10.0 mi SSE 6.9 mph - N/A   Clear
9:35 PM 64.4 °F 57.2 °F 77% 29.81 in 10.0 mi South 6.9 mph - N/A   Scattered Clouds
9:55 PM 64.4 °F 59.0 °F 83% 29.82 in 10.0 mi South 8.1 mph - N/A Rain Light Rain
10:15 PM 62.6 °F 59.0 °F 88% 29.81 in 10.0 mi SSE 6.9 mph - N/A   Scattered Clouds
10:35 PM 64.4 °F 59.0 °F 83% 29.81 in 10.0 mi SSE 8.1 mph - N/A Rain Light Rain
10:55 PM 64.4 °F 57.2 °F 77% 29.83 in 10.0 mi SSW 5.8 mph - N/A Rain Light Rain
11:15 PM 64.4 °F 59.0 °F 83% 29.81 in 10.0 mi SSE 10.4 mph - 0.01 in Rain Rain
11:35 PM 64.4 °F 55.4 °F 73% 29.77 in 10.0 mi South 21.9 mph 28.8 mph 0.01 in Rain Light Rain
11:55 PM 68.0 °F 50.0 °F 52% 29.77 in 10.0 mi West 5.8 mph 21.9 mph 0.01 in   Clear